Location: High Point State Park
(41.2941°N, 74.6906°W)
Time: 18:22:18
(UTC-04:00)

Hubble Space Telescope - Visible Passes

Search period start: 24 April 2018 00:00
Search period end: 04 May 2018 00:00
Orbit: 537 x 541 km, 28.5° (Epoch: 24 April)

Date Brightness Start Highest point End Pass type
(mag) Time Alt. Az. Time Alt. Az. Time Alt. Az.
27 Apr 2.9 21:09:48 10° SSW 21:11:13 12° S 21:11:13 12° S visible
28 Apr 2.8 20:59:04 10° SSW 21:00:57 13° S 21:01:43 12° SSE visible
29 Apr 2.8 20:48:28 10° SSW 20:50:30 13° S 20:52:07 11° SSE visible
30 Apr 2.8 20:37:56 10° SSW 20:40:03 14° S 20:42:10 10° SSE visible
01 May 2.9 20:27:29 10° SSW 20:29:36 14° S 20:31:43 10° SSE visible
